カタログに戻る

FENGYUN 1C DEB

運用中LEO
NORAD 31484·DEBRIS·🇨🇳 China

打ち上げ May 10, 1999 から Taiyuan Satellite Launch Center

Loading…

次のパス (今後24時間)

TLE

最新Source: Space-Track

元期: Sep 14, 2026, 08:41 UTC

1 31484U 99025BVY 26257.36203930  .00012305  00000-0  23905-2 0  9995
2 31484 101.8079 312.7662 0068404 120.8846 239.9092 14.61908125682520

AllMySatでFENGYUN 1C DEBをリアルタイム追跡

Download on the App Store